Погода в Сутуре

Погода в Сутуре : погода сейчас, прогноз погоды и архив. Всё, что Вы хотите узнать о погоде в Сутуре!

Поиск расширенной информации на нашем сайте:

Полезная информация: бухгалтерское обслуживание в строительстве

Другие новости

Новости СМИ2

Главная страница сайта

Новости сайта

03.07.2017

Напоминаем, что на нашем специализированном сайте Метеоцентр.Азия вы можете получить высокодетализированные автоматические прогнозы погоды по пунктам России, СНГ и мира в авиационном формате (включающие направление и скорость ветра, видимость, явления погоды, количество и форму облачности, нижнюю и верхнюю границу облачности).

Рекомендуем: технические характеристики ВВГнг 4х150

Погода в Сутуре - сегодня

Время (UTC), дата Ветер
(°,м/с) 
Видим.   Явления Облачность Т
(°С)
Тd
(°С)
f(%) Тe
(°С)
Pmin
(гПа)
dP
(гПа)
Po
(мм)
O2
(г/м3)
Тmin Tmax R s Состояние
почвы
09 21.04.18 320 (СЗ) 5-11{11}  20000 м    4/0 средняя 
[Ac lent]
+9.8 -10.2 23 +9  1015.4  1.8  731  285    +11.4       
12 21.04.18 300 (СЗ) 1{11}  20000 м    ясно 
+4.1 -11.3 32 +5  1019.7  3.3  733  292           
15 21.04.18 260 (З) 20000 м    ясно 
+2.6 -11.5 35 +3  1021.6  1.6  734  294           
18 21.04.18 100 (В) 20000 м    ясно 
-0.6 -10.8 46 1023  0.9  735  298           
00 22.04.18 300 (СЗ) 20000 м    ясно 
+6.9 -13.1 22 +6  1024.4  737  291           
03 22.04.18 300 (СЗ) 4{13}  20000 м    ясно 
+9.8 -13.2 18 +9  1023.3  -0.6  737  288           
06 22.04.18 310 (СЗ) 5-11{12}  20000 м    ясно 
+10.7 -14.6 15 +10  1022.1  -1  736  286           
12 22.04.18 200 (Ю) 10 км  дым  ясно 
+3.8 -13.2 28 +5  1025.6  2.1  737  294           
15 22.04.18 010 (С) 10 км  дым  ясно 
-0.8 -12.6 40 1027.1  0.7  738  299           
18 22.04.18 020 (С) 10 км    ясно 
-4.5 -10.7 62 -4  1027.9  0.2  738  303           
00 23.04.18 330 (СЗ) 20000 м  дым  ясно 
+4.1 -6.7 45 +5  1026.7  -0.3  738  294  -5.8         
03 23.04.18 200 (Ю) 20000 м  дым  ясно 
+13.3 -10.8 18 +14  1022.4  -2.8  736  284           
06 23.04.18 270 (З) 20000 м    ясно 
+17.2 -10.7 14 +18  1017.8  -3.9  733  279           
09 23.04.18 230 (ЮЗ) 20000 м    ясно 
+16.9 -10.2 15 +17  1015.6  -2.1  732  279    +18       
12 23.04.18 360 (С) 20000 м    3/0 средняя 
[Ac lent]
+9.5 -10.1 24 +11  1016.7  732  286           
15 23.04.18 360 (С) 20000 м    6/0 средняя, верхняя 
[Ac lent|Ci fib]
+4.1 -7.8 42 +5  1016.8  -0.7  731  291           
18 23.04.18 020 (С) 20000 м    ясно 
+4.1 -7.8 42 +5  1016.8  -1  730  291           
00 24.04.18 320 (СЗ) 20000 м    8/0 средняя, верхняя 
[Ac lent|Ci fib]
+13.1 -3.7 31 +14  1012.6  -0.9  729  281           
03 24.04.18 240 (ЮЗ) 20000 м    ясно 
+21.8 -8.8 12 +22  1009.3  -2  728  272           
06 24.04.18 230 (ЮЗ) 5{13}  20000 м    4/4 1000 м 
[Cu hum]
+22.4 -9.8 11 +22  1007.1  -2  726  271           
09 24.04.18 220 (ЮЗ) 20000 м    ясно 
+21.4 -9.5 12 +21  1006.1  -1.1  725  272    +23.1       
12 24.04.18 210 (ЮЗ) 20000 м    ясно 
+15.5 -11.7 14 +16  1007.7  0.8  726  278           
15 24.04.18 350 (С) 20000 м    ясно 
+5 -7.9 39 +6  1009.4  0.2  726  288           
18 24.04.18 350 (С) 20000 м    ясно 
+1.3 -6.8 55 +2  1009.6  -0.3  726  292           
00 25.04.18 330 (СЗ) 20000 м    4/0 средняя 
[Ac trans]
+13.8 -4 29 +15  1006.2  -1  725  278           
Время (UTC), дата Ветер
(°,м/с) 
Видим.   Явления Облачность Т
(°С)
Тd
(°С)
f(%) Тe
(°С)
Pmin
(гПа)
dP
(гПа)
Po
(мм)
O2
(г/м3)
Тmin Tmax R s Состояние
почвы

Для получения пояснительной информации подведите курсор к названию столбца.

ПОГОДА в Сутуре - архив

Всё, что Вы хотите узнать о погоде в Сутуре - удобно и подробно!

Выберите нужную дату (начиная с 1 января 2015* года) и нажмите кнопку "Найти".
Будут отображены архивные сводки погоды по пункту Сутур, начиная с указанной даты.


Отображать данные в формате CSV (для использования в таблицах Excel)


Внимание! Наш архив погоды предназначен исключительно для личного некоммерческого использования в познавательных целях. Если Вам необходимы официальные справки о состоянии погоды (для производственных, юридических, коммерческих и т.п. целей), обращайтесь в органы Росгидромета.

*Примечание: данная дата относится к архиву по метеостанциям СССР (Россия, СНГ, Балтия).
Архив по метеостанциям Зарубежной Европы и Азии (кроме Китая) хранится 10 дней, по другим регионам земного шара (Китай, Африка, Америка, Австралия, Океания) - 1 день.

Сутур - район местоположения метеостанции


Название, широта, долгота, высота метеостанции:
Сутур 50.1°ш. 132.1°д. 347 м над ур. моря [Российская Федерация]

Дополнительная информация

В oтличие oт бoльшинства пoгoдных сайтoв мы публикуем пoдрoбную метеoинфoрмацию в детальнoм прoфессиoнальнoм фoрмате.

Характеристики температуры и влажнoсти вoздуха измеряются на высoте 2 м в тени вдали oт зданий и деревьев.
Скoрoсть ветра измеряется на высoте 10 м (на урoвне рoста челoвека скoрoсть ветра ниже в 1.5-2 раза). Если метеoстанция нахoдится в гoрoде или в лесу, тo скoрoсть ветра занижена на 2-4 м/с пo сравнению с oткрытым местoм. Скoрoсть ветра над акватoриями крупных рек и oзёр, а также на вершинах хoлмoв на 2-5 м/с выше, чем в oбычных услoвиях.
Атмoсфернoе давление в разных тoчках местнoсти мoжет значительнo oтличаться oт давления на метеoстанции, в зависимoсти oт услoвий рельефа (при пoдъёме на 10 м давление пoнижается примернo на 1 мм рт.ст.).